GPS BIIR-11 (PRN 19)

Last updated on Nov. 29, 2020, 6:17 a.m. UTC

1 28190U 04009A   20332.90628655 -.00000072  00000-0  00000-0 0  9994
2 28190  56.2448 356.3385 0087727 100.7883  70.9568  2.00572314122310
UTC
Height (km)
Latitude
Longitude
Inclination
Orbital Period
UTC large
Height (km)
Speed (km/s)
/
Latitude / Longitude
Inclination (degrees)
Orbital Period (minutes)
Azimuth
Elevation
Range (km)
Doppler Factor
iOS Compass Heading
iOS Angle

Next 30 passes for location: Hong Kong

Rise time Rise Azimuth (degrees) Set time Set Azimuth (degrees) Duration Max altitude (degrees)

No matching passes for this satellites